Home > Weather > Walsall > Past weeks

Flag for United Kingdom Weather for the Past 2 Weeks in Walsall, England, United Kingdom

Now
66 °F

Passing clouds.


Feels Like: 66 °F
Forecast: 46 / 65 °F
Wind: 12 mph from Southeast

Location: Birmingham / Airport

Current Time: May 5, 2016 at 3:21:35 PM

Latest Report: May 5, 2016 at 2:50 PM


Visibility: N/A

Pressure: 30.07 "Hg

Humidity: 43%

Dew Point: 43 °F

Location of WalsallLocation

Historic Weather in Walsall — Graph

°F

Walsall Temperature Yesterday

Maximum temperature yesterday: 63 °F (at 3:50 PM)
Minimum temperature yesterday: 34 °F (at 5:50 AM)
Average temperature yesterday: 51 °F

High & Low Weather Summary for the Past Weeks

 TemperatureHumidityPressure
High66 °F (May 5, 1:50 PM)100% (Apr 24, 6:20 AM)30.42 "Hg (Apr 24, 6:20 AM)
Low34 °F (Apr 27, 6:20 AM)37% (Apr 23, 4:20 PM)29.68 "Hg (Apr 29, 5:50 AM)
Average46 °F71%30.07 "Hg
* Reported Apr 20 2:20 PM — May 5 2:20 PM, Walsall, Weather by CustomWeather, © 2016

Note: Actual official high and low records may vary slightly from our data, if they occured in-between our weather recording intervals... More about our weather records

Advertising

Walsall Weather History for the Previous 24 Hours

Scroll right to see more
 ConditionsComfort  
Time TempWeatherWind HumidityBarometerVisibility
2:20 PM
Thu, May 5
64 °FPassing clouds.13 mph46%30.07 "HgN/A
1:50 PM66 °FPassing clouds.13 mph43%30.07 "HgN/A
1:20 PM64 °FPassing clouds.10 mph46%30.09 "HgN/A
12:50 PM64 °FPassing clouds.12 mph46%30.09 "HgN/A
12:20 PM64 °FPassing clouds.9 mph49%30.09 "HgN/A
11:50 AM63 °FPassing clouds.10 mph52%30.12 "HgN/A
11:20 AM61 °FPassing clouds.8 mph52%30.12 "HgN/A
10:50 AM59 °FPassing clouds.8 mph51%30.12 "HgN/A
10:20 AM57 °FPassing clouds.8 mph51%30.12 "HgN/A
9:50 AM55 °FSunny.8 mph55%30.12 "Hg10 mi
9:20 AM54 °FSunny.8 mph58%30.12 "Hg10 mi
8:50 AM52 °FSunny.8 mph62%30.15 "Hg10 mi
8:20 AM50 °FSunny.6 mph67%30.15 "Hg10 mi
7:50 AM48 °FSunny.3 mph71%30.15 "Hg10 mi
7:20 AM45 °FSunny.3 mph76%30.15 "Hg10 mi
6:50 AM43 °FSunny.3 mph81%30.15 "Hg10 mi
6:20 AM41 °FClear.3 mph87%30.15 "Hg10 mi
5:50 AM39 °FClear.5 mph87%30.15 "Hg10 mi
5:20 AM39 °FClear.6 mph87%30.15 "Hg10 mi
4:50 AM39 °FClear.6 mph87%30.15 "Hg10 mi
4:20 AM39 °FClear.6 mph87%30.15 "Hg10 mi
3:50 AM39 °FClear.5 mph93%30.15 "Hg10 mi
3:20 AM39 °FClear.5 mph93%30.15 "Hg10 mi
2:50 AM41 °FClear.3 mph87%30.15 "Hg10 mi
2:20 AM43 °FClear.5 mph87%30.15 "Hg10 mi
1:50 AM43 °FClear.6 mph87%30.18 "Hg10 mi
1:20 AM45 °FClear.5 mph81%30.18 "Hg10 mi
12:50 AM43 °FClear.3 mph87%30.18 "Hg10 mi
12:20 AM45 °FClear.6 mph87%30.18 "Hg10 mi
11:50 PM
Wed, May 4
46 °FClear.5 mph82%30.18 "Hg10 mi
11:20 PM48 °FClear.5 mph76%30.18 "Hg10 mi
10:50 PM48 °FClear.5 mph76%30.18 "Hg10 mi
10:20 PM50 °FClear.5 mph71%30.18 "Hg10 mi
9:50 PM52 °FClear.3 mph67%30.18 "Hg10 mi
9:20 PM54 °FSunny.5 mph63%30.18 "Hg10 mi
8:50 PM55 °FSunny.5 mph63%30.18 "Hg10 mi
8:20 PM57 °FSunny.7 mph59%30.18 "Hg10 mi
7:50 PM59 °FPassing clouds.7 mph55%30.18 "HgN/A
7:20 PM61 °FPassing clouds.7 mph48%30.18 "HgN/A
6:50 PM61 °FPassing clouds.8 mph48%30.18 "HgN/A
6:20 PM61 °FPassing clouds.9 mph48%30.18 "HgN/A
5:50 PM61 °FPassing clouds.9 mph48%30.18 "HgN/A
5:20 PM63 °FPassing clouds.13 mph45%30.18 "HgN/A
4:50 PM63 °FSunny.9 mph42%30.18 "Hg10 mi
4:20 PM63 °FSunny.10 mph45%30.21 "Hg10 mi
3:50 PM63 °FPassing clouds.12 mph42%30.21 "HgN/A
3:20 PM61 °FPassing clouds.10 mph45%30.21 "HgN/A
Weather by CustomWeather, © 2016

See weather overviewHow to use our weather pages